When you browse on this site, cookies collect data to enhance your experience and personalize the content and advertising you see.
Visit our Privacy Policy to learn more. By continuing to use the site, you agree to this use of cookies and data.
  • In Hungary
  • List of Countries
  • For 7 days
  • Water Temperature
  • Satellite Maps
  • Weather Map
  • News
  • Weather Widgets
  • user-avatar
    Login

    Hourly Weather Jalalabad

    Today, 16 December, Sunday

    Time Temperature Precipitation Wind Pressure Humidity
    00:00 +11°C° 0 mm 1 mps 714 mmHg 26%
    01:00 +11°C° 0 mm 1 mps 714 mmHg 25%
    02:00 +11°C° 0 mm 1 mps 714 mmHg 25%
    03:00 +10°C° 0 mm 1 mps 714 mmHg 24%
    04:00 +10°C° 0 mm 1 mps 714 mmHg 23%
    05:00 +9°C° 0 mm 2 mps 714 mmHg 22%
    06:00 +9°C° 0 mm 2 mps 714 mmHg 21%
    07:00 +10°C° 0 mm 2 mps 714 mmHg 21%
    08:00 +10°C° 0 mm 2 mps 715 mmHg 20%
    09:00 +13°C° 0 mm 1 mps 715 mmHg 18%
    10:00 +16°C° 0 mm 1 mps 715 mmHg 15%
    11:00 +19°C° 0 mm 1 mps 715 mmHg 13%
    12:00 +20°C° 0 mm 1 mps 715 mmHg 13%
    13:00 +20°C° 0 mm 1 mps 714 mmHg 13%
    14:00 +21°C° 0 mm 1 mps 714 mmHg 12%
    15:00 +19°C° 0 mm 1 mps 714 mmHg 15%
    16:00 +16°C° 0 mm 1 mps 714 mmHg 18%
    17:00 +14°C° 0 mm 1 mps 713 mmHg 21%
    18:00 +14°C° 0 mm 1 mps 714 mmHg 21%
    19:00 +13°C° 0 mm 1 mps 714 mmHg 20%
    20:00 +13°C° 0 mm 1 mps 714 mmHg 20%
    21:00 +12°C° 0 mm 1 mps 714 mmHg 20%
    22:00 +12°C° 0 mm 1 mps 714 mmHg 20%
    23:00 +12°C° 0 mm 2 mps 714 mmHg 19%

    Tomorrow, 17 December, Monday

    Time Temperature Precipitation Wind Pressure Humidity
    00:00 +12°C° 0 mm 2 mps 714 mmHg 19%
    01:00 +12°C° 0 mm 2 mps 714 mmHg 19%
    02:00 +10°C° 0 mm 2 mps 714 mmHg 18%
    03:00 +10°C° 0 mm 2 mps 714 mmHg 18%
    04:00 +10°C° 0 mm 2 mps 713 mmHg 18%
    05:00 +10°C° 0 mm 2 mps 713 mmHg 17%
    06:00 +10°C° 0 mm 2 mps 713 mmHg 17%
    07:00 +10°C° 0 mm 2 mps 714 mmHg 17%
    08:00 +10°C° 0 mm 2 mps 714 mmHg 17%
    09:00 +13°C° 0 mm 1 mps 714 mmHg 15%
    10:00 +16°C° 0 mm 1 mps 714 mmHg 13%
    11:00 +19°C° 0 mm 1 mps 714 mmHg 11%
    12:00 +19°C° 0 mm 1 mps 714 mmHg 11%
    13:00 +20°C° 0 mm 1 mps 713 mmHg 11%
    14:00 +20°C° 0 mm 1 mps 713 mmHg 11%
    15:00 +19°C° 0 mm 1 mps 712 mmHg 13%
    16:00 +16°C° 0 mm 1 mps 712 mmHg 16%
    17:00 +15°C° 0 mm 1 mps 712 mmHg 19%
    18:00 +14°C° 0 mm 1 mps 712 mmHg 19%
    19:00 +14°C° 0 mm 1 mps 713 mmHg 19%
    20:00 +13°C° 0 mm 1 mps 713 mmHg 19%
    21:00 +13°C° 0 mm 1 mps 713 mmHg 19%
    22:00 +12°C° 0 mm 1 mps 714 mmHg 19%
    23:00 +12°C° 0 mm 1 mps 714 mmHg 19%

    Day after tomorrow, 18 December, Tuesday

    Time Temperature Precipitation Wind Pressure Humidity
    00:00 +12°C° 0 mm 1 mps 714 mmHg 19%
    01:00 +11°C° 0 mm 1 mps 713 mmHg 19%
    02:00 +11°C° 0 mm 1 mps 713 mmHg 19%
    03:00 +11°C° 0 mm 1 mps 713 mmHg 19%
    04:00 +11°C° 0 mm 1 mps 713 mmHg 19%
    05:00 +10°C° 0 mm 2 mps 712 mmHg 19%
    06:00 +10°C° 0 mm 2 mps 712 mmHg 19%
    07:00 +10°C° 0 mm 2 mps 713 mmHg 19%
    08:00 +12°C° 0 mm 2 mps 713 mmHg 19%
    09:00 +14°C° 0 mm 1 mps 713 mmHg 16%
    10:00 +16°C° 0 mm 1 mps 713 mmHg 14%
    11:00 +20°C° 0 mm 1 mps 713 mmHg 12%
    12:00 +20°C° 0 mm 1 mps 712 mmHg 12%
    13:00 +21°C° 0 mm 1 mps 712 mmHg 12%
    14:00 +21°C° 0 mm 1 mps 711 mmHg 12%
    15:00 +20°C° 0 mm 1 mps 710 mmHg 15%
    16:00 +18°C° 0 mm 1 mps 710 mmHg 17%
    17:00 +16°C° 0 mm 1 mps 710 mmHg 20%
    18:00 +16°C° 0 mm 1 mps 710 mmHg 20%
    19:00 +15°C° 0 mm 1 mps 710 mmHg 20%
    20:00 +14°C° 0 mm 1 mps 710 mmHg 20%
    21:00 +14°C° 0 mm 1 mps 710 mmHg 20%
    22:00 +14°C° 0 mm 1 mps 710 mmHg 20%
    23:00 +14°C° 0 mm 1 mps 710 mmHg 20%

    19 December, Wednesday

    Time Temperature Precipitation Wind Pressure Humidity
    00:00 +14°C° 0 mm 1 mps 710 mmHg 21%
    01:00 +13°C° 0 mm 1 mps 709 mmHg 21%
    02:00 +13°C° 0 mm 1 mps 709 mmHg 21%
    03:00 +12°C° 0 mm 1 mps 709 mmHg 21%
    04:00 +12°C° 0 mm 1 mps 709 mmHg 21%
    05:00 +12°C° 0 mm 1 mps 708 mmHg 21%
    06:00 +12°C° 0 mm 1 mps 709 mmHg 20%
    07:00 +12°C° 0 mm 1 mps 709 mmHg 20%
    08:00 +12°C° 0 mm 2 mps 709 mmHg 19%
    09:00 +14°C° 0 mm 1 mps 710 mmHg 17%
    10:00 +18°C° 0 mm 1 mps 710 mmHg 14%
    11:00 +20°C° 0 mm 1 mps 710 mmHg 12%
    12:00 +20°C° 0 mm 1 mps 710 mmHg 12%
    13:00 +21°C° 0 mm 1 mps 709 mmHg 12%
    14:00 +21°C° 0 mm 1 mps 709 mmHg 12%
    15:00 +19°C° 0 mm 1 mps 709 mmHg 15%
    16:00 +18°C° 0 mm 1 mps 709 mmHg 18%
    17:00 +14°C° 0 mm 0 mps 709 mmHg 21%
    18:00 +14°C° 0 mm 1 mps 710 mmHg 21%
    19:00 +13°C° 0 mm 1 mps 711 mmHg 21%
    20:00 +13°C° 0 mm 1 mps 711 mmHg 21%
    21:00 +12°C° 0 mm 1 mps 712 mmHg 21%
    22:00 +12°C° 0 mm 1 mps 712 mmHg 21%
    23:00 +12°C° 0 mm 1 mps 712 mmHg 21%

    20 December, Thursday

    Time Temperature Precipitation Wind Pressure Humidity
    00:00 +12°C° 0 mm 1 mps 712 mmHg 21%
    01:00 +10°C° 0 mm 2 mps 712 mmHg 21%
    02:00 +10°C° 0 mm 2 mps 712 mmHg 20%
    03:00 +10°C° 0 mm 2 mps 712 mmHg 20%
    04:00 +9°C° 0 mm 2 mps 712 mmHg 20%
    05:00 +9°C° 0 mm 2 mps 712 mmHg 20%
    06:00 +9°C° 0 mm 2 mps 712 mmHg 21%
    07:00 +9°C° 0 mm 2 mps 712 mmHg 21%
    08:00 +9°C° 0 mm 2 mps 713 mmHg 21%
    09:00 +12°C° 0 mm 2 mps 713 mmHg 19%
    10:00 +15°C° 0 mm 2 mps 713 mmHg 16%
    11:00 +17°C° 0 mm 2 mps 713 mmHg 14%
    12:00 +17°C° 0 mm 2 mps 712 mmHg 14%
    13:00 +18°C° 0 mm 2 mps 712 mmHg 14%
    14:00 +18°C° 0 mm 2 mps 711 mmHg 13%
    15:00 +18°C° 0 mm 1 mps 711 mmHg 16%
    16:00 +16°C° 0 mm 1 mps 711 mmHg 19%
    17:00 +14°C° 0 mm 1 mps 711 mmHg 22%
    18:00 +14°C° 0 mm 1 mps 711 mmHg 22%
    19:00 +13°C° 0 mm 1 mps 712 mmHg 22%
    20:00 +12°C° 0 mm 1 mps 712 mmHg 22%
    21:00 +12°C° 0 mm 2 mps 712 mmHg 22%
    22:00 +12°C° 0 mm 2 mps 712 mmHg 22%
    23:00 +10°C° 0 mm 2 mps 712 mmHg 22%

    21 December, Friday

    Time Temperature Precipitation Wind Pressure Humidity
    00:00 +10°C° 0 mm 2 mps 712 mmHg 21%
    01:00 +10°C° 0 mm 2 mps 711 mmHg 21%
    02:00 +10°C° 0 mm 2 mps 711 mmHg 21%
    03:00 +10°C° 0 mm 1 mps 710 mmHg 21%
    04:00 +10°C° 0 mm 1 mps 710 mmHg 21%
    05:00 +10°C° 0 mm 1 mps 710 mmHg 21%
    06:00 +10°C° 0 mm 1 mps 710 mmHg 21%
    07:00 +9°C° 0 mm 2 mps 710 mmHg 20%
    08:00 +9°C° 0 mm 2 mps 710 mmHg 20%
    09:00 +13°C° 0 mm 1 mps 710 mmHg 18%
    10:00 +15°C° 0 mm 1 mps 710 mmHg 15%
    11:00 +18°C° 0 mm 1 mps 710 mmHg 13%
    12:00 +19°C° 0 mm 1 mps 710 mmHg 13%
    13:00 +19°C° 0 mm 1 mps 709 mmHg 13%
    14:00 +19°C° 0 mm 1 mps 709 mmHg 12%
    15:00 +18°C° 0 mm 1 mps 709 mmHg 15%
    16:00 +16°C° 0 mm 1 mps 709 mmHg 18%
    17:00 +14°C° 0 mm 1 mps 709 mmHg 20%
    18:00 +14°C° 0 mm 1 mps 709 mmHg 20%
    19:00 +13°C° 0 mm 1 mps 710 mmHg 20%
    20:00 +12°C° 0 mm 1 mps 710 mmHg 20%
    21:00 +12°C° 0 mm 1 mps 710 mmHg 19%
    22:00 +12°C° 0 mm 2 mps 710 mmHg 19%
    23:00 +12°C° 0 mm 2 mps 710 mmHg 19%
    Show more